Airfield :
LOGIN :

Register | Disclaimer

   EN    FR    IT 

 










Legend :    VFR   Marginal VFR   IFR   Intensive IFR   Very Intensive IFR
Visi :
Ceiling :
>= 8 km
>= 3000ft
5 to 8 km
1000 to 3000 ft
1500m to 5 km
500 to 1000 ft
800 to 1500m
200 to 500 ft
< 800m
< 200 ft
Symbols :   Thunderstorms  Fog  Heavy snow  Heavy precipitations  Wind > 20 kt
SIGMETs :     Misc.  Thunderstorms  Icing  Turbulence  Mountain Waves  Volcanic Ashes






- Airport Elevation : 2297 ft


LEGA - Armilla

CURRENT METAR :
  • 221330Z VRB04KT 9999 FEW031 19/08 Q1015

EXPIRED METARs :
  • 221300Z VRB02KT 9999 FEW025 SCT053 18/10 Q1015
  • 221230Z VRB04KT 9999 SCT025 16/09 Q1015
  • 221200Z VRB03KT 9999 SCT038 16/10 Q1016
  • 221130Z 23004KT 9999 SCT025 BKN044 14/09 Q1016
  • 221100Z VRB03KT 9999 SCT029 BKN042 14/08 Q1016

TAF TAF LEGA
Valid from the 22 at 12:00 until the 23 at 12:00 UTC


221100Z 2212/2312 VRB02KT 9999 FEW030 SCT045 TX21/2215Z TN10/2306Z
PROB30
TEMPO 2212/2217 4000 RA SHRA SCT025 SCT040TCU
TEMPO 2213/2218 30010KT



MET'MAP, your aeronautical weather chart ! - Copyright ORBIFLY December 2007 - Disclaimer

ORBIFLY MET'MAP TEAM :

Programming & Development : Alexandra Zaïnal
Concept & original design : Baudouin d'Aumeries
Assistance for programming : Marc-Olivier Méhu
Technical & hardware support : Manuel Goepfert

Contact : metmap@orbifly.com




SOURCES & CREDITS :

   NOAA